Location: Vancouver
(49.2500°N, 123.1333°W)
Time: 03:19:34
(UTC-07:00)

Daily predictions for brighter satellites

Satellite Brightness Start Highest point End
(mag) Time Altitude Azimuth Time Altitude Azimuth Time Altitude Azimuth
Coronas F rocket 3.8 00:04:13 12° E 00:04:13 12° E 00:05:19 10° ENE
Cosmos 374 Rocket 4.4 00:05:42 10° NW 00:09:32 70° SW 00:11:40 29° SSE
ALOS 2 3.1 00:07:31 25° SE 00:09:48 52° ENE 00:14:04 10° N
Cosmos 1689 Rocket 3.5 00:09:16 25° ESE 00:10:28 33° ENE 00:13:28 10° N
Okean 1-7 3.1 00:06:17 10° NNW 00:10:33 70° W 00:12:38 29° S
Cosmos 1603 3.7 00:06:30 10° NNW 00:12:13 80° ENE 00:15:45 24° SE
ATLAS 3B R/B 3.3 00:09:25 10° NW 00:15:59 43° WSW 00:19:45 23° S
Cosmos 2237 Rocket 4.2 00:23:34 10° WNW 00:27:08 17° W 00:30:41 10° SW
Cosmos 1892 3.1 00:27:25 35° SE 00:28:32 47° E 00:32:12 10° NNE
USA 238 DEB 3.8 00:21:48 10° NW 00:28:48 68° SW 00:33:10 25° SSE
USA 238 3.8 00:21:54 10° NW 00:28:54 69° SW 00:33:17 24° SSE
Cosmos 2251 Rocket 3.5 00:25:20 10° NNW 00:30:41 78° WSW 00:33:26 29° SSE
Cosmos 2084 Rocket 3.6 00:34:00 39° SSE 00:34:37 42° SE 00:38:15 10° NE
Cosmos 1674 Rocket 3.7 00:33:43 10° N 00:38:08 66° ENE 00:40:06 32° SSE
Cosmos 921 Rocket 3.9 00:38:49 28° SE 00:39:56 33° E 00:43:44 10° NE
Cosmos 44 4.1 00:38:48 29° SSE 00:40:50 42° ESE 00:45:58 10° NE
NOSS 2-3 (E) 4.0 00:37:14 18° SW 00:40:59 84° SE 00:47:00 10° NE
Cosmos 389 Rocket 4.0 00:39:14 10° NNW 00:42:18 27° W 00:43:29 22° SW
SL-08 ROCKET BODY 4.4 00:39:18 26° S 00:43:03 89° ESE 00:49:14 10° N
H-2A R/B 4.4 00:40:24 10° WSW 00:43:13 14° W 00:46:04 10° NW
CZ-4B R/B 1.4 00:44:39 47° S 00:45:34 82° WSW 00:48:57 10° NNW
Cosmos 1238 Rocket 3.6 00:41:52 10° N 00:45:44 39° ENE 00:47:00 28° ESE
Lacrosse 4 Rocket 3.4 00:43:08 10° WNW 00:46:13 19° WSW 00:47:34 16° SW
Cosmos 494 Rocket 4.0 00:42:18 10° NNW 00:47:35 80° WSW 00:50:13 30° SSE
SeaSat 1 3.1 00:46:00 28° SSW 00:48:04 43° WSW 00:52:47 10° NW
CENTAUR R/B 4.3 00:42:18 10° NW 00:49:11 39° NNE 00:56:39 10° E
Cosmos 1825 3.9 00:48:13 18° ESE 00:49:18 21° E 00:52:10 10° NE
Cosmos 1975 Rocket 4.4 00:45:30 10° N 00:49:26 31° ENE 00:51:47 19° ESE
Nadezhda 3 Rocket 4.0 00:43:46 10° N 00:50:01 78° E 00:53:39 27° SSE
Cosmos 1356 Rocket 3.5 00:50:10 38° SSE 00:51:29 59° E 00:55:32 10° NNE
Cosmos 1867 4.0 00:47:27 10° NW 00:52:55 62° NE 00:57:24 15° SE
Cosmos 2074 Rocket 4.2 00:48:52 22° SSW 00:53:01 69° WNW 00:59:21 10° N
Cosmos 1607 3.9 00:47:08 10° NW 00:53:15 68° SW 00:56:39 27° SSE
Meteor 2-3 Rocket 3.9 00:49:46 23° SSW 00:53:23 69° WNW 00:59:06 10° N
Cosmos 1610 Rocket 4.4 00:50:16 27° S 00:53:50 88° E 01:00:01 10° N
ASTEX 1 3.3 00:49:09 10° N 00:54:05 86° W 00:56:27 31° S
USA 234 4.0 00:50:00 10° E 00:56:20 55° NNE 01:02:41 10° WNW
CZ-2C R/B 4.1 00:53:46 18° SE 00:57:44 44° ENE 01:02:58 10° N
Meteor 1-10 Rocket 4.4 00:54:27 10° NNW 01:00:24 75° W 01:03:36 29° S
Cosmos 1908 Rocket 4.1 00:59:02 31° SE 01:00:35 45° E 01:04:45 10° NNE
NOSS 3-2 (C) 4.0 00:55:02 10° NW 01:02:25 84° NE 01:09:36 13° SE
GEOS 3 Rocket 3.9 01:00:39 30° S 01:02:51 49° SW 01:07:54 10° NW
NOSS 2-3 (C) 4.4 01:03:48 13° SW 01:08:25 69° NW 01:14:33 10° NE
Cosmos 2227 Rocket 4.3 01:06:34 10° W 01:11:05 24° NW 01:15:38 10° N
Okean 3 3.9 01:07:25 10° N 01:11:41 56° ENE 01:13:36 30° SE
Meteor 2-10 Rocket 4.2 01:06:35 10° NNW 01:11:58 49° W 01:14:53 26° SSW
Cosmos 2263 Rocket 3.2 01:09:40 24° SSE 01:11:58 33° ESE 01:17:00 10° NE
ERBS 4.3 01:10:14 10° W 01:13:23 31° NNW 01:16:33 10° NE
Cosmos 1782 3.1 01:10:14 10° NNW 01:14:09 57° W 01:15:24 38° SSW
Landsat 5 4.2 01:14:41 32° SSW 01:16:25 48° W 01:20:50 10° NNW
MOS 1-B Rocket 3.8 01:15:53 29° S 01:18:57 80° WSW 01:24:38 10° NNW
H-2A R/B 3.1 01:16:10 10° N 01:20:16 52° WNW 01:22:26 26° SW
SL-16 R/B 4.3 01:18:33 10° WNW 01:21:18 14° W 01:23:49 11° WSW
ATLAS 5 CENTAUR R/B 4.4 01:18:31 10° NW 01:23:19 27° NNE 01:28:27 10° E
Cosmos 1340 Rocket 3.6 01:21:49 27° SW 01:23:30 43° WNW 01:27:17 10° N
Cosmos 2154 Rocket 4.0 01:20:20 27° SSW 01:24:02 79° W 01:30:21 10° N
NOSS 3-2 (A) 4.0 01:17:20 10° NW 01:24:40 70° SW 01:30:20 21° SSE
Cosmos 44 Rocket 4.1 01:19:53 11° WSW 01:24:44 54° NW 01:29:54 10° NNE
CZ-4C R/B 3.0 01:20:29 10° NW 01:27:19 58° WSW 01:31:59 24° SSE
BREEZE-M DEB (TANK) 4.4 01:23:19 10° WSW 01:27:43 80° SSE 01:45:03 10° ENE
NOSS 3-4 (A) 3.9 01:25:32 28° S 01:28:40 49° ESE 01:34:59 10° NE
NOSS 3-4 (C) 3.9 01:25:39 28° S 01:28:45 49° ESE 01:35:05 10° NE
CZ-2C R/B 2.6 01:24:05 10° NNE 01:29:20 70° ESE 01:31:50 31° S
Cosmos 1733 Rocket 3.9 01:28:31 25° SW 01:30:42 44° WNW 01:35:00 10° N
Helios 1A Rocket 3.1 01:28:33 10° N 01:32:44 69° WNW 01:34:29 33° SSW
COSMOS 2406 4.1 01:28:51 10° NNW 01:34:27 47° NE 01:39:59 10° SE
Coronas F rocket 2.8 01:35:19 25° W 01:35:39 26° WNW 01:38:01 10° NNW
Sich 1 Rocket 3.8 01:33:58 31° SSW 01:35:58 63° WNW 01:40:30 10° N
Cosmos 2297 Rocket 4.4 01:33:42 10° W 01:38:01 22° NW 01:42:22 10° N
Cosmos 1378 Rocket 3.7 01:34:27 10° NNW 01:38:46 60° W 01:40:24 35° SSW
Cosmos 1689 Rocket 4.3 01:42:19 17° WSW 01:42:46 17° W 01:45:02 10° NW
Cosmos 1606 3.3 01:40:19 10° NNW 01:44:00 43° W 01:45:06 34° SW
Cosmos 1943 3.6 01:38:39 10° NW 01:44:08 49° WSW 01:46:41 29° SSW
ALOS 2 4.4 01:44:54 16° WSW 01:46:25 19° W 01:49:38 10° NW
RESURS DK-1 3.3 01:45:42 29° SSE 01:46:54 36° ESE 01:50:44 10° NE
Abrixas rocket 3.9 01:50:31 21° ESE 01:50:31 21° ESE 01:52:17 10° E
Cosmos 407 Rocket 4.3 01:44:41 10° NNW 01:49:42 48° ENE 01:54:25 12° SE
Cosmos 2056 Rocket 4.5 01:48:29 23° SSE 01:51:01 36° ESE 01:55:46 10° NE
Meteor 1-27 Rocket 4.3 01:48:37 10° NNW 01:54:11 47° W 01:57:05 26° SSW
Meteor 2-13 Rocket 4.4 01:51:32 27° SSW 01:55:04 85° W 02:01:16 10° N
ATLAS 2AS CENTAUR R/B 4.4 01:51:31 10° W 01:58:49 39° NNW 02:06:23 10° NE
Cosmos 2341 Rocket 4.4 01:55:17 23° SSW 01:59:15 57° WNW 02:05:33 10° N
SL-27 R/B 3.8 01:56:45 10° N 02:00:12 37° ENE 02:02:56 15° SE
Cosmos 1959 Rocket 4.5 01:57:51 26° S 02:01:35 84° E 02:07:49 10° N
Cosmos 1862 3.8 02:01:36 31° SW 02:03:12 50° WNW 02:07:10 10° N
Geosat 4.2 01:59:22 10° NNE 02:04:23 71° WNW 02:07:32 23° SW
Cosmos 1408 3.0 02:04:33 34° SW 02:05:53 55° WNW 02:09:37 10° N
PSLV R/B 4.1 02:06:08 35° SSW 02:07:37 57° W 02:11:39 10° NNW
SL-8 Rocket 4.1 02:04:42 26° SSW 02:08:31 76° W 02:14:53 10° N
Cosmos 1782 Rocket 3.8 02:07:28 30° SSW 02:09:26 60° WNW 02:13:50 10° N
Cosmos 1339 Rocket 4.5 02:05:19 10° N 02:11:26 81° E 02:15:39 21° SSE
Okean 2 Rocket 3.2 02:09:50 31° SSW 02:11:57 68° WNW 02:16:28 10° N
Meteor 1-14 Rocket 4.5 02:08:57 25° S 02:12:33 70° E 02:18:23 10° NNE
Meteor 2-8 Rocket 4.4 02:07:30 10° N 02:13:38 89° WSW 02:17:43 22° S
Iridium 4 Rocket 3.6 02:12:06 10° N 02:16:47 67° E 02:20:00 22° SSE
BREEZE-M DEB (TANK) 4.4 02:15:07 10° W 02:17:07 14° WSW 02:17:07 14° WSW
Cosmos 921 Rocket 4.5 02:15:36 15° WSW 02:18:16 28° WNW 02:21:57 10° N
Cosmos 1184 Rocket 2.7 02:18:50 42° SSW 02:19:53 86° W 02:23:16 10° N
Cosmos 2218 Rocket 4.1 02:16:45 25° SSW 02:20:39 75° W 02:27:03 10° N
Cosmos 44 4.5 02:17:12 11° WSW 02:22:09 45° NW 02:27:25 10° NNE
Cosmos 1825 3.3 02:23:09 24° WSW 02:24:44 34° WNW 02:28:14 10° N
Cosmos 1975 Rocket 4.2 02:23:26 10° NNW 02:27:15 30° W 02:28:55 23° SW
Cosmos 1812 3.0 02:28:39 10° N 02:32:33 64° ENE 02:34:59 21° SSE
Cosmos 2366 rocket 4.1 02:28:48 24° SSW 02:32:42 70° W 02:38:55 10° N
Meteor 1-18 Rocket 4.2 02:27:08 10° NNW 02:32:48 86° W 02:36:58 20° S
Cosmos 1624 Rocket 4.0 02:31:55 26° SSW 02:34:59 87° ESE 02:40:17 10° NNE
USA 161 4.4 02:34:32 10° ESE 02:36:17 15° ENE 02:38:04 10° NNE
CZ-2C R/B 4.2 02:34:50 22° SW 02:37:42 34° W 02:42:43 10° NNW
USA 234 3.2 02:32:41 10° SE 02:39:14 76° SW 02:45:48 10° WNW
Cosmos 1536 Rocket 3.6 02:35:02 10° NNW 02:39:23 64° W 02:41:45 26° S
Cosmos 1242 Rocket 3.1 02:36:42 10° NNW 02:40:01 40° W 02:41:06 31° SW
CENTAUR R/B 3.0 02:33:03 10° NW 02:40:45 87° SW 02:49:02 10° SE
Gbstr 26 Del rocket 4.2 02:42:50 21° SSE 02:43:41 22° SE 02:46:42 10° E
Cosmos 909 Rocket 4.3 02:40:30 22° SSW 02:45:02 79° ESE 02:52:48 10° NE
Meteor 1-20 Rocket 4.4 02:45:26 20° S 02:49:37 72° E 02:55:22 10° NNE
Cosmos 1727 Rocket 4.5 02:45:24 10° NNW 02:51:17 45° W 02:55:12 20° SSW
Cosmos 1844 Rocket 3.4 02:48:15 18° S 02:52:08 46° ESE 02:57:32 10° NE
CRYOSAT 2 4.5 02:47:55 10° N 02:52:44 64° W 02:55:46 22° SSW
ARIANE 5 R/B 4.4 02:49:24 10° NE 02:53:12 21° E 02:57:00 10° SE
Cosmos 2263 Rocket 2.9 02:51:21 16° SW 02:55:44 49° NW 03:01:15 10° NNE
Cosmos 1452 Rocket 3.9 02:53:05 19° S 02:56:41 57° ESE 03:01:51 10° NNE
IRS-P3 4.2 02:53:44 10° NNE 02:59:07 74° ESE 03:03:05 18° S
Resurs 1-4 Rocket 4.2 02:58:47 10° NE 03:02:46 21° E 03:06:42 10° SE
Meteor 1-13 Rocket 4.4 02:57:12 10° N 03:02:54 78° ENE 03:08:43 10° SSE
CBERS-1 4.4 02:58:38 10° NNE 03:03:44 59° E 03:07:50 16° S
Okean 1 3.3 02:59:54 10° NNW 03:03:53 66° W 03:06:26 21° S
PSLV R/B 3.7 03:00:00 10° N 03:04:10 59° WNW 03:06:46 22° SW
SL-24 DEB 4.2 03:01:59 10° N 03:06:40 90° ENE 03:10:08 18° S
Cosmos 1844 4.5 03:02:30 15° S 03:06:50 45° ESE 03:12:18 10° NE
ATLAS 5 CENTAUR R/B 2.6 03:03:04 10° NW 03:08:55 75° NE 03:15:14 10° SE
COSMOS 2487 2.9 03:05:21 10° NNW 03:08:59 65° ENE 03:12:34 10° SSE
CZ-2C R/B 4.4 03:05:17 10° N 03:09:06 21° WNW 03:12:52 10° WSW
Cosmos 2151 Rocket 4.4 03:08:40 19° SW 03:11:23 38° WNW 03:15:36 10° N
Cosmos 1633 4.4 03:09:16 10° SSE 03:12:20 26° E 03:15:27 10° NNE
Cosmos 1140 Rocket 3.4 03:08:32 10° NNW 03:13:43 89° WSW 03:18:51 10° SSE
ADEOS 4.2 03:08:56 10° NNE 03:14:04 51° E 03:18:46 12° S
Okean 1-7 Rocket 3.7 03:09:47 10° NNW 03:14:21 68° W 03:17:55 16° S
Okean 1 Rocket 3.1 03:12:42 19° S 03:15:52 87° W 03:20:23 10° N
COSMOS 2406 3.9 03:13:27 10° NW 03:18:39 35° WSW 03:22:34 16° SSW
Cosmos 1934 Rocket 4.1 03:13:45 13° S 03:19:18 75° E 03:25:27 10° NNE
Cosmos 2278 Rocket 3.2 03:14:34 12° S 03:19:25 39° ESE 03:24:39 10° NE
NOSS 3-4 (A) 4.3 03:13:23 10° WSW 03:19:39 49° NW 03:26:10 10° NE
NOSS 3-4 (C) 4.3 03:13:28 10° WSW 03:19:44 49° NW 03:26:15 10° NE
RESURS DK-1 3.8 03:21:37 12° WSW 03:25:02 30° NW 03:28:44 10° NNE
Abrixas rocket 2.2 03:23:27 14° WSW 03:26:12 68° S 03:29:33 10° E
NOSS 2-2 (D) 4.4 03:23:34 16° S 03:26:37 41° ESE 03:31:16 10° NE
Cosmos 1602 3.9 03:24:16 15° S 03:27:23 68° E 03:31:13 10° NNE
Okean O Rocket 4.3 03:26:59 10° ENE 03:28:49 12° E 03:30:40 10° ESE
Cosmos 1025 Rocket 3.0 03:25:02 10° N 03:29:21 87° E 03:33:40 10° S
Timation 2 Rocket 4.1 03:24:01 10° NNW 03:30:16 80° ENE 03:36:17 10° SSE
Cosmos 2056 Rocket 4.4 03:28:49 13° WSW 03:33:08 38° WNW 03:38:01 10° N
Cosmos 2082 Rocket 3.2 03:28:07 10° NNW 03:33:43 51° NE 03:39:17 10° SE
Cosmos 1850 Rocket 4.0 03:29:04 10° NNW 03:34:20 79° WSW 03:39:35 10° SSE
SL-27 R/B 4.2 03:32:36 10° NW 03:35:16 19° W 03:36:39 16° SW
Cosmos 1741 Rocket 4.0 03:32:07 10° NNW 03:37:26 77° WSW 03:42:40 10° SSE
GP-B 3.6 03:34:06 10° N 03:38:23 47° W 03:41:53 15° SSW
Cosmos 1455 Rocket 4.5 03:34:47 10° SSE 03:38:50 36° E 03:42:55 10° NNE
NOSS 2-2 (C) 4.0 03:37:37 15° SSW 03:40:58 55° SE 03:45:53 10° NE
Spot 4 Rocket 4.1 03:39:03 10° NNE 03:44:14 78° ESE 03:49:22 10° S
Meteor 2-14 Rocket 4.4 03:38:46 11° S 03:44:33 86° W 03:50:42 10° N
SL-08 R/B 4.1 03:41:17 14° SSW 03:45:08 36° W 03:49:39 10° NNW
Meteor 2-4 Rocket 3.6 03:41:08 10° NNW 03:46:35 88° W 03:51:56 10° S
NPP 4.0 03:45:03 10° N 03:50:18 53° WNW 03:55:08 12° SW
ERS-2 2.6 03:48:17 10° N 03:51:53 48° WNW 03:54:58 13° SW
AQUA 4.2 03:50:03 10° N 03:54:41 51° WNW 03:58:58 12° SW
Cosmos 1605 Rocket 4.0 03:51:12 10° S 03:57:25 83° W 04:03:45 10° N
Cosmos 2123 Rocket 4.2 03:51:28 10° NNW 03:57:38 56° W 04:03:45 10° SSW
Cosmos 1821 Rocket 4.4 03:52:52 12° SSW 03:58:43 52° WNW 04:04:59 10° N
UNKNOWN OBJECT B 4.2 03:55:35 10° NNE 03:59:27 38° E 04:03:16 10° SSE
SL-16 R/B 2.6 03:53:14 10° SSE 03:59:28 80° WSW 04:05:44 10° NNW
Okean 2 3.4 03:56:00 10° N 04:00:08 86° W 04:04:15 10° S
BREEZE-M DEB (TANK) 4.2 03:59:06 10° WNW 04:03:43 77° SSW 04:24:00 10° ESE
IRS-1D 3.7 03:58:42 10° NNE 04:03:49 75° ESE 04:08:48 10° S
Cosmos 1544 Rocket 3.6 04:00:09 10° S 04:04:34 86° E 04:08:59 10° N
CZ-2D R/B 2.6 04:00:37 10° NNE 04:06:04 66° ESE 04:11:31 10° S
NOSS 2-2 (E) 3.8 04:01:58 11° SW 04:06:05 89° NW 04:11:26 10° NE
OPS 6432 4.4 04:03:18 12° SSW 04:06:14 64° SE 04:09:21 10° NE
USA 161 2.4 04:04:00 11° SSW 04:06:25 31° W 04:09:09 10° NNW
Cosmos 1536 3.0 04:02:31 10° SSW 04:06:30 62° WNW 04:10:33 10° N
MTI 4.1 04:04:12 10° SSE 04:07:29 73° ENE 04:10:48 10° N
Cosmos 614 Rocket 4.2 04:02:39 10° NNW 04:07:38 49° WSW 04:12:33 10° S
Cosmos 1833 Rocket 3.0 04:07:56 10° NNW 04:13:35 76° ENE 04:19:12 10° SSE
BREEZE-M DEB (TANK) 2.4 04:12:22 10° W 04:18:59 86° N 04:21:32 10° E
SME Rocket 3.2 04:17:01 10° S 04:20:43 56° WSW 04:25:16 10° NNW
USA 234 4.1 04:17:44 10° S 04:22:57 25° SW 04:28:11 10° WNW
EO 1 Del DPAF 3.7 04:19:31 10° S 04:23:15 45° W 04:27:02 10° NNW
Cosmos 1892 Rocket 4.1 04:20:01 10° NNW 04:24:04 39° W 04:28:05 10° SSW
Cosmos 1174 3.6 04:21:18 10° NW 04:25:04 51° WSW 04:28:13 10° SSE
Cosmos 1486 Rocket 4.4 04:22:01 10° NNW 04:27:22 74° ENE 04:32:42 10° SSE
ERBS 3.9 04:25:11 10° NW 04:28:30 41° NNE 04:31:48 10° E
Gbstr 26 Del rocket 2.6 04:26:15 10° WSW 04:30:09 86° SSE 04:33:55 10° ENE
CENTAUR R/B 4.0 04:24:38 10° WNW 04:30:47 26° WSW 04:37:11 10° SSW
UNK 3.7 04:25:38 10° SW 04:31:48 38° SSE 04:34:21 10° E
Cosmos 2173 Rocket 4.2 04:26:47 10° S 04:32:53 78° E 04:39:06 10° NNE
